Change the Weather History Date:

Friday, December 21, 2012

  Actual Average Record
Temperature  
Mean Temperature 42 °F -  
Max Temperature 57 °F 57 °F 82 °F (2003)
Min Temperature 28 °F 32 °F 23 °F (1998)
Degree Days  
Heating Degree Days 22    
Moisture  
Dew Point -1 °F    
Average Humidity 17    
Maximum Humidity 27    
Minimum Humidity 8    
Precipitation  
Precipitation 0.00 in - - ()
Sea Level Pressure  
Sea Level Pressure 30.29 in    
Wind  
Wind Speed 9 mph (SSE)    
Max Wind Speed 17 mph    
Max Gust Speed 24 mph    
Visibility 10 miles    
Events      
Averages and records for this station are not official NWS values.
T = Trace of Precipitation, MM = Missing Value Source: NWS Daily Summary

Daily Weather History Graph

Daily Weather History Graph

Search for Another Location

Airport or City:

Trip Planner

Search our weather history database for the weather conditions in past years. The results will help you decide how hot, cold, wet, or windy it might be!

Date:

Astronomy

Dec. 21, 2012 Rise Set
Actual Time 7:45 AM CST 5:54 PM CST
Civil Twilight 7:19 AM CST 6:21 PM CST
Nautical Twilight 6:48 AM CST 6:51 PM CST
Astronomical Twilight 6:19 AM CST 7:20 PM CST
Moon 1:28 PM CST (12/21) 1:51 AM CST (12/21)
Length of Visible Light 11h 01m
Length of Day
10h 08m
Waxing Gibbous, 65% of the Moon is Illuminated
Dec 21
Waxing Gibbous
Dec 28
Full
Jan 4
Last Quarter
Jan 11
New
Jan 18
First Quarter

Hourly Weather History & Observations

Time (CST) Temp. Windchill Dew Point Humidity Pressure Visibility Wind Dir Wind Speed Gust Speed Precip Events Conditions
12:53 AM 32.0 °F 25.6 °F -0.9 °F 24% 30.41 in 10.0 mi SSW 6.9 mph - N/A   Clear
1:53 AM 32.0 °F 27.5 °F -0.9 °F 24% 30.39 in 10.0 mi South 4.6 mph - N/A   Clear
2:53 AM 32.0 °F 27.5 °F -0.9 °F 24% 30.38 in 10.0 mi SSW 4.6 mph - N/A   Clear
3:53 AM 30.9 °F 24.3 °F -0.9 °F 26% 30.38 in 10.0 mi SSE 6.9 mph - N/A   Clear
4:53 AM 30.9 °F 22.8 °F -2.0 °F 24% 30.35 in 10.0 mi South 9.2 mph - N/A   Clear
5:53 AM 33.1 °F 27.7 °F -4.0 °F 20% 30.34 in 10.0 mi South 5.8 mph - N/A   Clear
6:53 AM 28.0 °F 19.3 °F -2.0 °F 27% 30.38 in 10.0 mi South 9.2 mph - N/A   Clear
7:53 AM 30.9 °F 22.2 °F -4.0 °F 22% 30.38 in 10.0 mi SSE 10.4 mph - N/A   Clear
8:53 AM 37.0 °F 30.4 °F -2.9 °F 18% 30.36 in 10.0 mi SSE 9.2 mph - N/A   Clear
9:53 AM 45.0 °F 40.1 °F -0.9 °F 15% 30.37 in 10.0 mi SSE 9.2 mph - N/A   Clear
10:53 AM 44.1 °F 42.5 °F 1.0 °F 17% 30.38 in 10.0 mi NNW 3.5 mph - N/A   Clear
11:53 AM 53.1 °F - -0.9 °F 11% 30.32 in 10.0 mi SSE 6.9 mph - N/A   Clear
12:53 PM 55.9 °F - -2.0 °F 9% 30.27 in 10.0 mi East 5.8 mph - N/A   Clear
1:53 PM 57.0 °F - -2.9 °F 9% 30.23 in 10.0 mi ESE 10.4 mph - N/A   Clear
2:53 PM 57.0 °F - -4.0 °F 8% 30.21 in 10.0 mi ESE 10.4 mph - N/A   Clear
3:53 PM 57.0 °F - -2.9 °F 9% 30.19 in 10.0 mi ESE 10.4 mph - N/A   Clear
4:53 PM 55.9 °F - -0.0 °F 10% 30.18 in 10.0 mi East 11.5 mph - N/A   Clear
5:53 PM 52.0 °F - 1.0 °F 12% 30.19 in 10.0 mi SE 13.8 mph - N/A   Clear
6:53 PM 48.9 °F - 1.9 °F 15% 30.21 in 10.0 mi SSE 16.1 mph - N/A   Clear
7:53 PM 46.9 °F - 1.9 °F 16% 30.21 in 10.0 mi SSE 17.3 mph - N/A   Clear
8:53 PM 45.0 °F 37.9 °F 3.0 °F 18% 30.21 in 10.0 mi SSE 16.1 mph 23.0 mph N/A   Clear
9:53 PM 44.1 °F 36.8 °F 1.9 °F 17% 30.20 in 10.0 mi SSE 16.1 mph 24.2 mph N/A   Clear
10:53 PM 42.1 °F 34.9 °F 1.9 °F 19% 30.22 in 10.0 mi SSE 13.8 mph - N/A   Clear
11:53 PM 41.0 °F 33.9 °F 3.0 °F 21% 30.20 in 10.0 mi SSE 12.7 mph - N/A   Clear